When you browse on this site, cookies collect data to enhance your experience and personalize the content and advertising you see.
Visit our Privacy Policy to learn more. By continuing to use the site, you agree to this use of cookies and data.

Météo par heure à Stafford

Ce jour, 7 Juillet, Mardi

Heure Température Précipitation Vent Pression Humidité
00:00 +9°C° 0 mm 3 m/s 758 mmHg 92%
01:00 +9°C° 0 mm 2 m/s 758 mmHg 90%
02:00 +10°C° 0 mm 2 m/s 758 mmHg 89%
03:00 +11°C° 0 mm 1 m/s 757 mmHg 87%
04:00 +12°C° 0 mm 1 m/s 757 mmHg 87%
05:00 +12°C° 0 mm 1 m/s 757 mmHg 87%
06:00 +13°C° 0 mm 1 m/s 757 mmHg 89%
07:00 +14°C° 0.1 mm 2 m/s 757 mmHg 87%
08:00 +13°C° 0.1 mm 3 m/s 756 mmHg 84%
09:00 +14°C° 0.1 mm 4 m/s 756 mmHg 82%
10:00 +13°C° 0.3 mm 3 m/s 756 mmHg 84%
11:00 +13°C° 0.3 mm 3 m/s 756 mmHg 86%
12:00 +13°C° 0.3 mm 2 m/s 755 mmHg 89%
13:00 +13°C° 1.1 mm 2 m/s 755 mmHg 90%
14:00 +13°C° 1.1 mm 2 m/s 755 mmHg 92%
15:00 +13°C° 1.1 mm 2 m/s 754 mmHg 93%
16:00 +13°C° 1 mm 2 m/s 754 mmHg 94%
17:00 +13°C° 1 mm 2 m/s 753 mmHg 95%
18:00 +13°C° 1 mm 2 m/s 752 mmHg 96%
19:00 +13°C° 1.3 mm 2 m/s 752 mmHg 96%
20:00 +13°C° 1.3 mm 2 m/s 752 mmHg 97%
21:00 +14°C° 1.3 mm 2 m/s 752 mmHg 98%
22:00 +13°C° 0.9 mm 3 m/s 752 mmHg 97%
23:00 +13°C° 0.9 mm 3 m/s 752 mmHg 97%

Demain, 8 Juillet, Mercredi

Heure Température Précipitation Vent Pression Humidité
00:00 +14°C° 0.9 mm 3 m/s 751 mmHg 97%
01:00 +15°C° 0.3 mm 2 m/s 751 mmHg 97%
02:00 +14°C° 0.3 mm 2 m/s 751 mmHg 97%
03:00 +14°C° 0.3 mm 2 m/s 751 mmHg 97%
04:00 +14°C° 0.1 mm 2 m/s 751 mmHg 97%
05:00 +14°C° 0.1 mm 2 m/s 752 mmHg 97%
06:00 +14°C° 0.1 mm 2 m/s 752 mmHg 96%
07:00 +14°C° 0 mm 2 m/s 752 mmHg 94%
08:00 +14°C° 0 mm 2 m/s 752 mmHg 92%
09:00 +13°C° 0 mm 3 m/s 753 mmHg 91%
10:00 +14°C° 0 mm 3 m/s 753 mmHg 88%
11:00 +16°C° 0 mm 3 m/s 753 mmHg 86%
12:00 +16°C° 0 mm 3 m/s 753 mmHg 83%
13:00 +17°C° 0.1 mm 3 m/s 753 mmHg 81%
14:00 +18°C° 0.1 mm 3 m/s 753 mmHg 78%
15:00 +19°C° 0.1 mm 3 m/s 753 mmHg 76%
16:00 +18°C° 0.7 mm 3 m/s 753 mmHg 82%
17:00 +17°C° 0.7 mm 2 m/s 753 mmHg 88%
18:00 +16°C° 0.7 mm 2 m/s 753 mmHg 94%
19:00 +15°C° 1.8 mm 2 m/s 753 mmHg 95%
20:00 +14°C° 1.8 mm 3 m/s 753 mmHg 96%
21:00 +14°C° 1.8 mm 3 m/s 753 mmHg 98%
22:00 +14°C° 1.3 mm 3 m/s 752 mmHg 98%
23:00 +14°C° 1.3 mm 3 m/s 752 mmHg 97%

Après-demain, 9 Juillet, Jeudi

Heure Température Précipitation Vent Pression Humidité
00:00 +14°C° 1.3 mm 3 m/s 752 mmHg 97%
01:00 +14°C° 0.2 mm 3 m/s 751 mmHg 97%
02:00 +14°C° 0.2 mm 3 m/s 751 mmHg 97%
03:00 +14°C° 0.2 mm 3 m/s 751 mmHg 96%
04:00 +14°C° 0 mm 3 m/s 751 mmHg 96%
05:00 +14°C° 0 mm 3 m/s 750 mmHg 96%
06:00 +14°C° 0 mm 3 m/s 750 mmHg 96%
07:00 +14°C° 0.6 mm 3 m/s 750 mmHg 96%
08:00 +16°C° 0.6 mm 3 m/s 750 mmHg 96%
09:00 +16°C° 0.6 mm 2 m/s 750 mmHg 97%
10:00 +16°C° 0.2 mm 3 m/s 750 mmHg 96%
11:00 +17°C° 0.2 mm 3 m/s 749 mmHg 94%
12:00 +17°C° 0.2 mm 3 m/s 749 mmHg 93%
13:00 +17°C° 0.2 mm 3 m/s 749 mmHg 93%
14:00 +17°C° 0.2 mm 3 m/s 749 mmHg 93%
15:00 +17°C° 0.2 mm 3 m/s 749 mmHg 93%
16:00 +17°C° 0.1 mm 3 m/s 749 mmHg 93%
17:00 +16°C° 0.1 mm 3 m/s 749 mmHg 93%
18:00 +15°C° 0.1 mm 4 m/s 749 mmHg 93%
19:00 +14°C° 0 mm 4 m/s 749 mmHg 93%
20:00 +13°C° 0 mm 4 m/s 750 mmHg 92%
21:00 +13°C° 0 mm 5 m/s 750 mmHg 92%
22:00 +12°C° 0 mm 5 m/s 750 mmHg 92%
23:00 +12°C° 0 mm 5 m/s 751 mmHg 92%

10 Juillet, Vendredi

Heure Température Précipitation Vent Pression Humidité
00:00 +10°C° 0 mm 5 m/s 751 mmHg 91%
01:00 +10°C° 0 mm 5 m/s 751 mmHg 90%
02:00 +9°C° 0 mm 5 m/s 751 mmHg 89%
03:00 +8°C° 0 mm 5 m/s 752 mmHg 88%
04:00 +8°C° 0 mm 6 m/s 752 mmHg 87%
05:00 +9°C° 0 mm 6 m/s 752 mmHg 86%
06:00 +9°C° 0 mm 6 m/s 752 mmHg 85%
07:00 +10°C° 0 mm 7 m/s 753 mmHg 82%
08:00 +12°C° 0 mm 7 m/s 753 mmHg 79%
09:00 +13°C° 0 mm 8 m/s 754 mmHg 76%
10:00 +15°C° 0.1 mm 8 m/s 754 mmHg 73%
11:00 +15°C° 0.1 mm 8 m/s 755 mmHg 70%
12:00 +16°C° 0.1 mm 8 m/s 755 mmHg 67%
13:00 +16°C° 0.2 mm 8 m/s 755 mmHg 68%
14:00 +16°C° 0.2 mm 7 m/s 756 mmHg 68%
15:00 +16°C° 0.2 mm 7 m/s 756 mmHg 68%
16:00 +15°C° 0 mm 7 m/s 756 mmHg 69%
17:00 +15°C° 0 mm 6 m/s 757 mmHg 69%
18:00 +15°C° 0 mm 5 m/s 757 mmHg 70%
19:00 +13°C° 0 mm 5 m/s 758 mmHg 74%
20:00 +12°C° 0 mm 4 m/s 758 mmHg 78%
21:00 +10°C° 0 mm 4 m/s 759 mmHg 82%
22:00 +10°C° 0 mm 3 m/s 759 mmHg 84%
23:00 +9°C° 0 mm 3 m/s 759 mmHg 86%

11 Juillet, Samedi

Heure Température Précipitation Vent Pression Humidité
00:00 +9°C° 0 mm 3 m/s 760 mmHg 88%
01:00 +8°C° 0 mm 3 m/s 760 mmHg 90%
02:00 +8°C° 0 mm 3 m/s 760 mmHg 91%
03:00 +8°C° 0 mm 3 m/s 760 mmHg 93%
04:00 +9°C° 0 mm 3 m/s 760 mmHg 91%
05:00 +9°C° 0 mm 3 m/s 760 mmHg 89%
06:00 +10°C° 0 mm 3 m/s 761 mmHg 88%
07:00 +12°C° 0 mm 4 m/s 761 mmHg 83%
08:00 +13°C° 0 mm 4 m/s 761 mmHg 78%
09:00 +14°C° 0 mm 4 m/s 761 mmHg 73%
10:00 +15°C° 0 mm 4 m/s 761 mmHg 70%
11:00 +17°C° 0 mm 4 m/s 761 mmHg 67%
12:00 +17°C° 0 mm 4 m/s 761 mmHg 64%
13:00 +18°C° 0 mm 4 m/s 761 mmHg 63%
14:00 +18°C° 0 mm 4 m/s 762 mmHg 62%
15:00 +18°C° 0 mm 4 m/s 762 mmHg 62%
16:00 +18°C° 0 mm 4 m/s 762 mmHg 64%
17:00 +17°C° 0 mm 4 m/s 761 mmHg 66%
18:00 +17°C° 0 mm 3 m/s 761 mmHg 69%
19:00 +14°C° 0 mm 3 m/s 762 mmHg 72%
20:00 +13°C° 0 mm 2 m/s 762 mmHg 75%
21:00 +12°C° 0 mm 2 m/s 762 mmHg 78%
22:00 +10°C° 0 mm 2 m/s 763 mmHg 79%
23:00 +10°C° 0 mm 1 m/s 763 mmHg 80%

12 Juillet, Dimanche

Heure Température Précipitation Vent Pression Humidité
00:00 +10°C° 0 mm 1 m/s 763 mmHg 82%
01:00 +9°C° 0 mm 1 m/s 763 mmHg 83%
02:00 +9°C° 0 mm 1 m/s 763 mmHg 85%
03:00 +9°C° 0 mm 1 m/s 763 mmHg 86%
04:00 +10°C° 0 mm 1 m/s 763 mmHg 85%
05:00 +11°C° 0 mm 1 m/s 763 mmHg 83%
06:00 +11°C° 0 mm 1 m/s 763 mmHg 82%
07:00 +13°C° 0 mm 1 m/s 763 mmHg 77%
08:00 +15°C° 0 mm 1 m/s 763 mmHg 72%
09:00 +16°C° 0 mm 1 m/s 763 mmHg 67%
10:00 +18°C° 0 mm 1 m/s 763 mmHg 64%
11:00 +19°C° 0 mm 1 m/s 763 mmHg 61%
12:00 +20°C° 0 mm 1 m/s 763 mmHg 57%
13:00 +21°C° 0 mm 1 m/s 763 mmHg 56%
14:00 +21°C° 0 mm 1 m/s 762 mmHg 55%
15:00 +22°C° 0 mm 1 m/s 762 mmHg 53%
16:00 +22°C° 0 mm 1 m/s 762 mmHg 56%
17:00 +22°C° 0 mm 1 m/s 762 mmHg 59%
18:00 +21°C° 0 mm 1 m/s 762 mmHg 62%
19:00 +19°C° 0 mm 1 m/s 762 mmHg 67%
20:00 +18°C° 0 mm 1 m/s 762 mmHg 71%
21:00 +15°C° 0 mm 1 m/s 762 mmHg 76%
22:00 +14°C° 0 mm 1 m/s 762 mmHg 78%
23:00 +13°C° 0 mm 0 m/s 762 mmHg 79%
Voir plus